{"data":{"norad_id":63780,"intl_designator":"2025-091F","name":"STARLINK-33846","alt_names":[],"object_type":"PAYLOAD","status":"ACTIVE","operator":null,"country":"US","launch_date":"2025-05-02","launch_site_code":"AFETR","launch_vehicle":null,"mission":null,"orbit_class":"UNKNOWN","rcs_meters":null,"size_class":null,"mass_kg":null,"dimensions":null,"purposes":["comms"],"wikipedia_slug":null,"has_3d_model":false,"image_url":null,"decayed_at":null,"tle_current":{"epoch":"2026-05-24T21:26:53.635776Z","epoch_age_seconds":74499,"freshness":"FRESH","line1":"1 63780U 25091F   26144.89367634  .00018546  00000+0  68140-3 0  9999","line2":"2 63780  42.9999 342.4253 0001358 273.4912  86.5785 15.27598078 60609","mean_motion":15.27598078,"eccentricity":0.0001358,"inclination_deg":42.9999,"raan_deg":342.4253,"arg_perigee_deg":273.4912,"mean_anomaly_deg":86.5785,"bstar":0.0006814,"rev_number":6060,"period_min":94.265633135996,"perigee_km":482.06322281719,"apogee_km":483.92670625876,"semimajor_km":6861.131964538,"source":"CELESTRAK","updated_at":"2026-05-25T13:38:20.133902Z"}}}